This demonstration page uses our WeatherBlox Daily Observations layout. Learn more.

Left ArrowRight Arrow

40.92501, -98.34201

Hourly Observations for September 24, 2022

Temp ( °F °C ) Dew Point ( °F °C ) Humidity (%) Winds ( mph kmh ) Pressure ( in mb ) Visibility ( mi km ) Precip ( " mm )
12:53 am 00:53 Clear 58 14.4 53 11.7 84 84 WNW 8 13 29.96 1015 10 16 0.00 0.00
1:53 am 01:53 Clear 57 13.9 50 10 77 77 W 9 15 29.96 1014 10 16 0.00 0.00
2:53 am 02:53 Clear 55 12.8 48 8.9 77 77 W 8 13 29.97 1015 10 16 0.00 0.00
3:53 am 03:53 Clear 51 10.6 45 7.2 79 79 WSW 7 11 29.96 1015 10 16 0.00 0.00
4:53 am 04:53 Clear 51 10.6 45 7.2 79 79 SW 6 9 29.96 1015 10 16 0.00 0.00
5:53 am 05:53 Clear 51 10.6 44 6.7 77 77 Calm 29.98 1015 10 16 0.00 0.00
6:53 am 06:53 Clear 50 10 44 6.7 80 80 WSW 5 7 29.99 1016 10 16 0.00 0.00
7:53 am 07:53 Sunny 51 10.6 45 7.2 79 79 WSW 8 13 30.01 1016 10 16 0.00 0.00
8:53 am 08:53 Sunny 60 15.6 46 7.8 60 60 W 9 15 30.00 1016 10 16 0.00 0.00
9:53 am 09:53 Sunny 68 20 48 8.9 49 49 WNW 10 17 30.01 1016 10 16 0.00 0.00
10:53 am 10:53 Sunny 78 25.6 45 7.2 31 31 W 10 17 30.00 1016 10 16 0.00 0.00
11:53 am 11:53 Sunny 83 28.3 42 5.6 24 24 W 13 20 29.98 1015 10 16 0.00 0.00
12:53 pm 12:53 Sunny 87 30.6 39 3.9 18 18 WNW 9 15 29.96 1015 10 16 0.00 0.00
1:53 pm 13:53 Sunny 88 31.1 42 5.6 20 20 W 7 11 29.94 1014 10 16 0.00 0.00
2:53 pm 14:53 Sunny 89 31.7 38 3.3 17 17 NW 7 11 29.92 1013 10 16 0.00 0.00
3:53 pm 15:53 Sunny 90 32.2 38 3.3 16 16 NW 14 22 29.92 1013 10 16 0.00 0.00
4:53 pm 16:53 Mostly Sunny 88 31.1 37 2.8 17 17 NW 12 19 29.91 1013 10 16 0.00 0.00
5:53 pm 17:53 Mostly Sunny 84 28.9 39 3.9 20 20 N 10 17 29.91 1013 10 16 0.00 0.00
6:53 pm 18:53 Sunny 80 26.7 40 4.4 24 24 N 10 17 29.94 1014 10 16 0.00 0.00
7:53 pm 19:53 Clear 74 23.3 40 4.4 29 29 N 10 17 29.97 1015 10 16 0.00 0.00
8:53 pm 20:53 Clear 68 20 41 5 37 37 N 9 15 30.01 1016 10 16 0.00 0.00
9:53 pm 21:53 Clear 65 18.3 42 5.6 43 43 Calm 30.04 1017 10 16 0.00 0.00
10:53 pm 22:53 Clear 60 15.6 43 6.1 53 53 W 3 6 30.04 1017 10 16 0.00 0.00
11:53 pm 23:53 Clear 57 13.9 45 7.2 64 64 WNW 6 9 30.06 1018 10 16 0.00 0.00

Powered by AerisWeather